Temperature
19 19 19 19 19 19 19 19 19 19 19 19 19 19 19 19 19 19 18 18 18 18 18 18 18 18 18 18 17 17 17 17 17 17 17 17 17 17 17 16 16 16 16
19 19 19 19 19 19 19 19 19 19 19 19 19 19 19 19 19 19 18 18 18 18 18 18 18 18 18 18 18 17 17 17 17 17 17 17 17 17 17 16 16 16 16
19 19 19 19 19 19 19 19 19 19 19 19 19 19 19 19 18 18 18 18 18 18 18 18 18 18 18 18 18 17 17 17 17 17 17 17 17 17 17 16 16 16 16
19 19 19 19 19 19 19 19 19 19 19 19 19 19 19 19 19 18 18 18 18 18 18 18 18 18 18 18 18 18 17 17 17 17 17 17 17 17 17 16 16 16 16
19 19 19 19 19 19 19 19 19 19 19 19 19 19 19 19 19 19 18 18 18 18 18 18 18 18 18 18 18 18 17 17 17 17 17 17 17 17 17 16 16 16 16
19 19 19 19 19 19 19 19 19 19 19 19 19 19 19 19 19 19 19 19 18 18 18 18 18 18 18 18 18 18 17 17 17 17 17 17 17 17 16 16 16 16 16
19 19 19 19 19 19 19 19 19 19 19 19 19 19 19 19 19 19 19 19 19 18 18 18 18 18 18 18 18 18 17 17 17 17 17 17 17 17 16 16 16 16 16
19 19 19 19 19 19 19 19 19 19 19 19 19 19 19 19 20 19 19 19 19 19 18 18 18 18 18 18 18 18 17 17 17 17 17 17 17 16 16 16 16 16 16
19 19 19 19 19 19 19 19 19 19 19 19 19 19 19 19 19 19 19 19 19 19 19 18 18 18 18 18 18 17 17 17 17 17 17 17 17 16 16 16 16 16 16
19 19 19 19 19 19 19 19 19 19 19 19 19 19 19 19 19 19 19 19 19 19 19 19 18 18 18 18 18 17 17 17 17 17 17 17 17 16 16 16 16 16 16
19 19 19 19 19 19 19 19 19 19 19 19 19 19 19 19 19 19 19 19 19 19 19 19 18 18 18 18 18 18 18 17 17 17 17 17 17 16 16 16 16 16 16
19 19 19 19 19 19 19 19 19 19 19 19 19 19 19 19 19 19 19 19 19 19 19 19 18 18 18 18 18 17 17 17 17 17 17 17 17 17 16 16 16 16 16
20 19 19 19 19 19 19 19 19 19 19 19 19 19 19 19 19 19 18 18 18 19 19 19 18 18 18 18 18 17 17 17 17 17 17 17 17 16 16 16 16 16 16
20 20 20 20 19 19 19 19 19 19 19 18 18 18 18 18 18 18 18 18 18 18 18 18 18 18 18 18 18 17 17 17 17 17 17 16 16 16 16 16 16 16 16
20 20 20 19 19 19 19 19 19 19 19 18 18 18 18 18 18 18 18 18 18 18 18 18 18 18 18 18 17 17 17 17 17 17 17 16 16 16 16 16 16 16 16
20 20 19 19 19 19 19 19 19 19 19 18 18 18 18 18 18 18 18 18 18 18 18 18 18 18 18 17 17 17 17 17 17 17 16 16 16 16 16 16 16 15 15
19 19 19 19 19 19 19 19 19 18 18 18 18 18 18 18 18 18 18 18 18 18 18 17 17 17 17 17 17 17 17 17 16 16 16 16 16 16 16 16 15 15 15
19 19 19 19 19 19 19 18 18 18 18 18 18 18 18 18 18 18 18 18 17 17 17 17 17 17 17 17 17 17 16 16 16 16 16 16 16 15 15 15 15 15 15
19 19 19 19 19 18 18 18 18 18 18 18 18 18 18 18 18 17 17 17 17 17 17 17 17 17 17 16 16 16 16 16 16 16 16 16 15 15 15 15 15 15 15
19 19 19 19 18 18 18 18 18 18 18 18 18 18 17 17 17 17 17 17 17 17 16 16 16 16 16 16 16 16 16 16 16 15 15 15 15 15 15 15 15 14 14
19 19 18 18 18 18 18 18 18 18 18 17 17 17 17 17 17 17 16 16 16 16 16 16 16 15 15 16 15 15 15 15 15 15 15 15 15 15 15 15 14 14 14
18 18 18 18 18 18 18 18 18 18 17 17 17 17 17 17 17 17 16 16 16 16 16 15 15 15 15 15 15 15 15 15 15 15 15 15 15 14 14 14 14 14 14
18 18 18 18 18 18 18 18 17 17 17 17 17 16 16 16 16 16 16 16 16 15 15 15 15 15 15 15 14 14 14 14 14 15 14 14 14 14 14 14 14 14 14
18 18 18 18 18 18 17 17 17 17 17 16 16 16 16 16 16 16 16 15 15 15 15 15 15 15 15 14 14 14 14 14 14 14 14 14 14 14 14 14 14 13 13
18 18 18 17 17 17 17 17 17 16 16 16 16 16 16 16 16 15 15 15 15 15 15 14 14 14 14 14 14 14 14 13 13 14 14 13 13 13 13 13 13 13 13
18 17 17 17 17 17 17 17 17 16 16 16 15 15 15 15 15 15 15 15 14 14 14 14 14 14 14 14 14 14 13 13 13 13 13 13 13 13 13 13 13 13 13
Wind_Speed
3 3 1 1 3 4 4 3 3 3 2 2 3 3 3 4 6 9 10 13 13 12 11 11 10 9 9 8 8 8 7 7 8 8 8 7 7 7 7 8 8 7 7
3 2 2 1 2 3 3 3 3 3 2 2 2 2 2 4 6 8 11 11 12 12 12 11 10 10 10 9 8 8 8 8 8 8 8 8 8 8 8 8 8 8 8
3 2 1 1 2 2 3 3 2 2 3 3 3 2 2 3 4 5 9 10 10 11 12 12 11 11 10 10 9 9 9 9 9 9 9 9 10 10 9 9 8 9 9
3 2 1 1 2 2 2 2 2 1 1 2 2 2 3 3 4 4 6 9 10 10 11 12 12 11 11 10 10 9 9 9 10 10 10 10 10 10 10 10 10 10 9
3 1 1 1 1 2 2 2 2 1 1 1 2 3 2 3 4 4 5 7 9 10 10 12 13 11 11 10 10 9 9 9 10 10 10 11 11 11 11 11 11 11 11
3 1 1 1 1 2 2 2 1 0 1 1 1 1 2 3 3 4 4 4 6 8 9 11 11 10 12 12 11 10 10 10 10 10 10 11 11 11 12 12 12 12 12
3 1 1 1 2 1 2 2 2 1 1 1 1 0 1 2 2 3 3 3 3 4 6 8 9 8 8 12 12 11 11 11 10 10 10 10 10 10 11 11 12 12 12
3 3 2 1 1 1 2 1 1 1 1 1 1 0 0 0 1 3 3 3 3 3 3 6 7 7 7 7 10 13 12 12 11 10 10 9 9 9 10 10 11 12 12
3 1 1 1 1 1 2 2 2 2 1 0 0 1 0 0 1 0 2 2 2 2 3 3 6 6 6 6 7 10 11 11 10 10 10 9 9 9 9 10 10 11 11
3 3 2 1 1 1 1 2 2 2 1 1 1 1 0 1 0 0 1 1 3 3 3 2 3 5 6 5 4 6 8 9 8 8 8 8 8 9 9 9 9 9 10
3 2 2 1 1 1 0 0 0 0 1 1 1 1 1 1 1 1 1 1 2 2 3 3 1 2 5 6 5 5 7 7 7 6 6 7 7 8 8 9 9 9 10
2 2 2 1 1 1 1 1 1 1 1 1 1 1 0 0 0 1 1 2 2 2 2 2 3 2 4 5 5 6 9 9 8 7 6 6 6 7 8 8 9 9 10
3 2 2 2 1 1 1 1 1 1 1 1 1 1 1 1 1 1 1 2 2 2 1 2 2 2 3 5 5 6 9 10 9 8 6 6 5 5 6 6 7 7 7
2 3 3 2 2 2 2 2 2 2 2 2 2 1 2 2 1 1 1 2 2 2 2 2 1 2 2 3 5 6 6 10 9 8 7 6 6 6 5 5 5 5 5
2 3 3 3 2 2 1 2 2 2 1 1 1 2 2 2 2 2 1 2 2 2 3 2 1 1 1 2 4 4 5 8 10 9 9 8 7 7 6 6 5 6 6
1 2 3 3 3 2 2 2 2 2 2 2 2 2 2 2 2 2 2 2 1 1 2 2 2 1 1 1 3 3 5 7 10 11 11 10 9 9 8 7 6 6 6
2 2 3 3 2 2 2 3 3 3 3 2 2 2 3 2 2 2 2 2 2 1 2 3 2 1 1 2 2 4 5 6 7 11 13 11 10 9 9 8 7 7 6
3 3 3 3 3 3 3 3 4 3 3 3 2 2 2 2 2 2 2 2 2 2 2 4 3 3 3 2 2 3 3 4 5 9 13 12 11 11 10 10 9 8 7
4 4 4 3 3 2 2 2 2 2 2 2 2 2 2 2 2 2 1 2 2 3 2 3 4 2 2 2 2 3 4 2 4 5 9 12 12 12 11 11 10 9 8
4 4 4 4 3 2 2 2 2 2 2 2 2 2 2 2 2 2 2 2 2 3 3 3 3 3 2 2 2 3 3 2 4 4 4 6 9 11 12 12 11 10 9
5 4 3 3 3 4 4 3 3 4 3 2 2 2 2 1 1 0 1 1 2 2 2 3 3 3 3 2 3 3 4 3 4 3 1 3 4 5 6 9 10 10 11
4 3 3 3 3 4 2 2 3 2 3 2 2 2 2 1 1 1 0 1 1 2 2 3 3 3 3 3 3 4 4 4 4 2 2 4 3 4 4 5 8 10 11
3 3 4 4 3 2 2 3 4 4 3 3 3 2 4 3 2 1 1 1 2 3 3 3 4 4 4 3 3 4 4 5 5 3 2 4 3 3 3 4 9 10 10
4 4 4 4 3 3 2 2 4 4 4 3 3 3 3 1 2 0 1 2 3 3 4 3 3 4 4 4 4 5 5 5 4 3 2 4 3 3 3 3 8 10 10
4 4 4 4 3 3 3 3 3 4 3 4 4 3 3 2 1 1 1 2 3 3 4 3 4 4 4 5 4 3 4 4 4 3 2 2 3 3 3 2 5 8 10
4 4 4 4 4 3 4 4 5 4 3 3 2 2 2 3 3 2 2 2 3 3 4 4 3 4 4 4 4 3 3 4 4 3 2 2 3 2 3 2 1 4 6
Wind_Direction
83 88 87 107 145 141 144 155 152 169 161 155 164 142 118 119 126 130 144 161 165 169 174 178 180 185 189 192 196 198 202 207 208 208 208 210 212 212 210 210 213 215 214
100 98 112 119 132 131 137 150 157 146 135 137 155 156 150 139 140 141 148 166 173 176 181 183 185 189 192 195 200 204 208 213 215 213 212 215 217 217 218 218 220 219 219
117 117 127 139 132 133 133 136 129 140 152 164 158 158 146 134 137 147 155 165 174 182 186 188 192 195 197 201 206 211 215 218 218 219 221 223 223 222 224 223 222 223 224
124 133 126 118 135 133 130 139 128 128 145 152 162 177 164 155 151 160 167 173 173 180 189 196 198 201 205 208 212 217 220 222 222 225 226 228 228 227 227 226 224 224 225
133 132 100 96 149 139 140 139 117 113 167 142 182 180 185 167 162 174 178 180 174 174 176 189 197 202 206 212 215 219 223 225 228 231 233 233 233 229 229 227 226 225 224
134 144 130 98 89 82 90 95 102 151 199 200 240 172 189 178 173 175 181 178 176 180 179 176 186 202 211 216 217 219 225 228 231 233 234 236 237 234 232 231 230 230 228
143 135 78 91 108 115 127 142 146 187 176 150 169 236 211 194 180 168 174 180 178 175 176 171 177 189 201 215 221 223 226 229 233 234 234 237 239 238 236 235 235 234 233
164 166 149 189 130 148 144 165 149 182 217 165 163 163 251 281 286 208 179 189 192 184 191 192 183 189 197 192 210 220 227 230 235 235 233 234 237 237 236 237 238 236 234
165 108 152 198 193 195 172 190 185 191 211 242 165 169 164 193 269 231 208 185 177 188 206 201 189 188 200 201 197 208 221 227 231 233 233 235 235 235 236 238 238 237 237
173 173 193 195 209 209 176 204 172 212 204 228 246 219 180 117 114 312 276 195 190 203 214 232 201 184 187 185 182 174 204 218 226 232 235 237 235 235 236 239 241 241 241
181 180 171 172 190 168 176 263 163 242 252 268 254 241 232 213 206 184 255 268 237 209 200 206 204 183 175 170 157 167 186 203 213 221 228 232 234 238 241 244 246 247 247
182 179 157 160 164 173 197 212 205 196 237 280 304 303 287 46 252 254 264 262 267 244 203 192 190 179 176 162 178 185 186 193 199 208 219 225 234 240 244 249 252 253 251
176 170 167 162 168 184 201 209 203 205 219 234 239 277 301 280 289 280 276 276 292 283 252 219 198 180 183 161 163 185 188 190 195 204 213 221 228 235 242 248 254 258 260
160 151 161 162 171 216 218 213 221 212 202 219 226 245 264 277 296 261 243 260 279 285 298 267 224 182 151 163 168 191 187 196 200 203 209 216 222 226 230 238 246 255 263
162 148 159 159 178 212 230 220 226 223 193 217 240 249 258 269 269 284 283 263 264 288 297 289 297 209 168 153 167 199 191 203 206 205 209 213 219 223 224 230 237 244 250
162 148 165 174 183 203 216 212 226 215 196 209 225 239 258 279 294 292 283 284 288 262 275 282 279 280 230 228 181 205 209 209 211 208 210 212 218 221 222 226 233 239 241
179 178 193 193 196 208 214 219 222 209 207 216 236 227 230 239 281 294 293 288 291 282 271 286 289 284 275 271 212 221 224 210 204 209 210 212 216 219 219 222 228 233 235
198 200 205 205 212 217 221 223 232 211 213 218 222 222 226 234 254 283 299 315 310 296 277 281 283 272 267 250 244 256 255 245 221 216 207 212 215 219 220 220 222 225 227
206 209 207 215 226 225 219 222 232 217 216 218 205 214 225 213 235 260 270 285 285 297 275 268 277 277 284 298 281 279 275 263 260 227 205 212 217 220 223 223 222 219 219
215 221 215 216 220 231 216 209 216 225 227 225 208 218 235 224 235 260 262 270 282 293 292 288 281 281 275 283 284 283 284 272 270 253 214 210 214 220 226 225 221 217 218
214 219 225 225 225 233 228 208 205 215 220 232 220 214 221 200 172 281 294 307 302 295 295 292 282 294 306 318 301 285 290 286 273 265 240 230 211 216 222 217 215 217 218
211 209 217 229 240 255 242 202 221 225 209 214 229 239 215 184 161 164 202 315 303 288 301 301 304 302 300 304 302 301 303 304 289 270 269 268 237 226 213 190 197 204 213
209 207 216 221 228 266 249 223 220 236 227 212 215 234 264 257 186 204 255 261 278 278 265 266 288 296 300 302 301 296 294 294 285 282 282 278 258 245 222 201 189 194 203
206 210 220 223 222 239 233 239 229 234 226 211 215 221 241 252 265 272 269 274 274 277 270 264 267 277 290 300 290 284 278 280 279 283 290 277 277 275 272 194 195 196 204
210 212 218 224 220 227 205 207 221 240 228 216 217 222 225 210 180 127 252 263 279 293 292 276 260 269 285 299 306 305 296 294 292 287 284 277 287 293 273 233 207 205 208
218 217 217 217 217 217 201 205 216 238 235 229 211 196 206 190 178 174 217 243 264 285 303 307 283 274 271 274 274 261 284 294 298 294 308 293 292 298 281 262 230 208 215
Height
1525 1526 1526 1528 1529 1530 1532 1533 1534 1536 1537 1539 1540 1541 1542 1543 1544 1544 1544 1545 1545 1546 1546 1547 1547 1548 1549 1550 1550 1551 1551 1552 1553 1553 1554 1554 1555 1555 1556 1556 1557 1557 1558
1526 1527 1528 1529 1530 1531 1532 1533 1535 1536 1537 1539 1540 1541 1542 1543 1543 1544 1544 1544 1545 1545 1546 1546 1547 1547 1548 1549 1549 1550 1550 1551 1551 1552 1552 1552 1553 1553 1554 1554 1555 1556 1556
1528 1528 1529 1530 1531 1532 1533 1534 1535 1536 1537 1538 1540 1541 1542 1542 1543 1543 1544 1544 1545 1545 1546 1546 1547 1547 1547 1548 1548 1549 1549 1549 1550 1550 1550 1550 1551 1551 1552 1552 1553 1553 1554
1529 1529 1530 1531 1532 1533 1534 1534 1535 1536 1538 1538 1539 1540 1541 1542 1542 1543 1543 1544 1544 1544 1545 1546 1546 1546 1547 1547 1547 1547 1548 1548 1548 1548 1548 1548 1549 1549 1549 1550 1550 1551 1551
1529 1530 1530 1531 1532 1533 1534 1535 1535 1536 1538 1538 1539 1540 1541 1541 1542 1542 1542 1543 1543 1544 1544 1544 1545 1545 1545 1545 1546 1546 1546 1546 1546 1546 1546 1546 1546 1547 1547 1547 1548 1548 1549
1530 1530 1531 1531 1532 1533 1534 1535 1535 1536 1537 1538 1539 1540 1540 1541 1541 1541 1542 1542 1542 1543 1543 1543 1543 1544 1544 1544 1544 1544 1544 1544 1544 1544 1544 1544 1544 1544 1544 1545 1545 1546 1546
1530 1530 1531 1531 1532 1533 1533 1534 1535 1536 1537 1538 1538 1539 1539 1540 1540 1540 1541 1541 1542 1542 1543 1543 1542 1542 1542 1542 1542 1542 1542 1542 1542 1541 1541 1541 1541 1541 1541 1542 1542 1543 1543
1530 1531 1531 1532 1532 1532 1533 1534 1534 1535 1536 1537 1537 1538 1539 1540 1539 1540 1540 1540 1541 1541 1542 1542 1542 1542 1541 1541 1540 1540 1540 1540 1539 1539 1539 1539 1538 1539 1539 1539 1539 1539 1540
1530 1530 1531 1531 1532 1532 1533 1533 1533 1534 1535 1536 1536 1537 1538 1538 1538 1539 1539 1539 1540 1540 1541 1541 1541 1540 1540 1539 1538 1538 1538 1537 1537 1536 1536 1536 1536 1536 1536 1536 1536 1536 1537
1530 1530 1531 1531 1531 1532 1532 1532 1533 1533 1534 1535 1535 1536 1537 1537 1538 1539 1539 1539 1539 1539 1539 1539 1539 1538 1537 1537 1536 1536 1535 1535 1534 1533 1533 1533 1533 1533 1533 1532 1533 1533 1533
1529 1530 1530 1530 1531 1531 1531 1531 1532 1532 1533 1534 1534 1535 1536 1536 1537 1537 1537 1538 1538 1538 1537 1536 1537 1537 1536 1535 1534 1534 1533 1533 1532 1531 1531 1531 1530 1530 1530 1530 1529 1530 1530
1529 1529 1530 1530 1530 1530 1530 1530 1531 1531 1532 1533 1533 1534 1534 1535 1535 1536 1536 1536 1536 1536 1536 1535 1535 1535 1534 1533 1533 1532 1531 1531 1530 1529 1529 1528 1528 1527 1527 1527 1526 1526 1526
1528 1528 1529 1529 1529 1529 1529 1529 1529 1530 1531 1531 1532 1533 1533 1534 1535 1535 1535 1534 1534 1534 1534 1534 1533 1533 1532 1531 1530 1530 1529 1528 1528 1527 1527 1526 1525 1524 1524 1523 1523 1523 1523
1527 1527 1527 1528 1528 1528 1528 1528 1528 1529 1529 1529 1530 1531 1532 1532 1533 1533 1534 1533 1533 1532 1532 1532 1531 1530 1530 1529 1528 1527 1526 1526 1525 1524 1524 1523 1523 1522 1521 1521 1520 1520 1519
1526 1526 1526 1526 1526 1526 1526 1527 1527 1527 1527 1528 1528 1529 1530 1530 1530 1531 1531 1531 1532 1530 1530 1529 1529 1528 1527 1526 1525 1524 1523 1523 1522 1522 1521 1520 1520 1519 1518 1518 1517 1517 1516
1524 1524 1525 1525 1525 1525 1525 1525 1525 1525 1525 1526 1526 1527 1527 1528 1528 1529 1529 1529 1529 1529 1527 1527 1527 1526 1525 1524 1523 1522 1521 1520 1519 1519 1518 1518 1517 1516 1515 1515 1514 1514 1513
1522 1523 1523 1523 1523 1523 1523 1523 1523 1523 1524 1524 1524 1525 1525 1525 1526 1526 1526 1527 1527 1527 1525 1525 1524 1524 1523 1522 1521 1520 1519 1518 1517 1516 1515 1515 1514 1513 1512 1512 1511 1511 1510
1520 1521 1521 1521 1521 1521 1521 1521 1521 1521 1522 1522 1522 1522 1523 1523 1523 1524 1524 1524 1524 1524 1523 1522 1521 1521 1520 1519 1518 1517 1516 1515 1514 1513 1513 1512 1511 1510 1509 1509 1508 1507 1507
1518 1518 1518 1519 1519 1519 1519 1519 1519 1519 1519 1520 1520 1520 1520 1521 1521 1521 1521 1521 1521 1521 1520 1519 1518 1518 1517 1516 1515 1514 1513 1512 1511 1510 1509 1508 1507 1507 1506 1505 1505 1504 1504
1515 1516 1516 1516 1516 1517 1517 1517 1517 1517 1517 1517 1517 1517 1517 1518 1518 1518 1518 1518 1517 1517 1517 1516 1515 1514 1514 1513 1512 1510 1509 1509 1508 1507 1506 1505 1504 1504 1503 1502 1502 1501 1501
1513 1513 1514 1514 1514 1514 1514 1514 1514 1514 1514 1514 1514 1514 1514 1515 1515 1515 1515 1514 1514 1514 1513 1513 1512 1511 1510 1509 1509 1508 1507 1505 1505 1504 1503 1502 1501 1500 1499 1498 1498 1497 1497
1510 1511 1511 1511 1511 1512 1512 1511 1511 1511 1511 1511 1511 1511 1511 1511 1511 1512 1511 1512 1512 1511 1510 1510 1509 1508 1507 1507 1506 1505 1504 1502 1501 1501 1500 1498 1498 1496 1496 1495 1494 1494 1493
1507 1507 1508 1508 1508 1508 1508 1508 1508 1508 1507 1506 1507 1507 1508 1508 1508 1508 1507 1508 1508 1508 1508 1507 1506 1505 1504 1503 1502 1502 1501 1500 1497 1497 1496 1494 1494 1493 1493 1492 1491 1490 1490
1503 1503 1504 1504 1505 1504 1505 1504 1504 1504 1503 1502 1503 1503 1504 1504 1504 1504 1504 1504 1504 1504 1504 1503 1503 1502 1501 1500 1499 1498 1497 1496 1495 1494 1493 1491 1490 1489 1489 1488 1487 1487 1487
1500 1500 1500 1501 1501 1501 1501 1501 1501 1501 1500 1499 1500 1500 1500 1500 1500 1500 1500 1500 1499 1500 1500 1499 1499 1498 1497 1496 1495 1494 1493 1492 1490 1489 1490 1488 1486 1485 1485 1484 1484 1484 1483
1496 1496 1497 1497 1497 1497 1497 1497 1497 1497 1497 1497 1496 1496 1496 1496 1496 1496 1496 1496 1495 1495 1495 1495 1494 1493 1493 1492 1491 1491 1490 1489 1487 1486 1486 1485 1484 1483 1481 1480 1480 1480 1479